User: anonymous   Login
Location: ?????
(30.4569°N, 47.8921°E)
Time: 11:40:10
(UTC+00:00)
Language:

Cosmos 2151 - Orbit

View from above orbital plane
View from above orbital plane
View from above satellite
View from above satellite

Ground track
Ground track

The orbit data is extracted from the following two-line orbital elements,

1 21422U 91042A   20227.12965340  .00000166  00000-0  13766-4 0  9990
2 21422  82.4984 228.0274 0015301  45.3657 314.8808 14.92146554580560
Epoch (UTC): 14 August 2020 03:06:42
Eccentricity: 0.0015301
inclination: 82.4984°
perigee height: 580 km
apogee height: 602 km
right ascension of ascending node: 228.0274°
argument of perigee: 45.3657°
revolutions per day: 14.92146554
mean anomaly at epoch: 314.8808°
orbit number at epoch: 58056

The dashed part of the orbit path shows where the satellite is in the earth's shadow,  

DLR